This demonstration page uses our WeatherBlox Daily Observations layout. Learn more.

Left ArrowRight Arrow

Hourly Observations for December 12, 2020

Temp ( °F °C ) Dew Point ( °F °C ) Humidity (%) Winds ( mph kmh ) Pressure ( in mb ) Visibility ( mi km ) Precip ( " mm )
12:53 am 00:53 Clear 53 11.7 41 5 64 64 SE 3 6 29.91 1013 10 16 0.00 0.00
1:53 am 01:53 Clear 53 11.7 41 5 64 64 SE 3 6 29.88 1012 10 16 0.00 0.00
2:53 am 02:53 Cloudy 53 11.7 41 5 64 64 VRB 5 7 29.85 1011 10 16 0.00 0.00
3:53 am 03:53 Cloudy with Light Rain 53 11.7 42 5.6 66 66 Calm 29.85 1011 10 16 0.00 0.00
4:53 am 04:53 Cloudy with Light Rain 53 11.7 43 6.1 69 69 VRB 5 7 29.83 1010 10 16 0.00 0.00
5:53 am 05:53 Cloudy with Light Rain 53 11.7 44 6.7 72 72 VRB 3 6 29.81 1010 10 16 0.00 0.00
6:53 am 06:53 Cloudy 54 12.2 44 6.7 69 69 VRB 5 7 29.80 1009 10 16 0.00 0.00
7:53 am 07:53 Cloudy with Light Rain 54 12.2 47 8.3 77 77 S 8 13 29.79 1009 7 11 0.01 0.25
8:53 am 08:53 Cloudy with Light Rain 53 11.7 49 9.4 86 86 S 8 13 29.77 1008 4 6 0.05 1.27
9:06 am 09:06 Cloudy with Light Rain 53 11.7 50 10 89 89 VRB 7 11 29.78 1009 3 5 0.02 0.51
9:35 am 09:35 Cloudy with Light Rain 53 11.7 51 10.6 93 93 VRB 7 11 29.78 1009 5 8 0.04 1.02
9:53 am 09:53 Cloudy with Light Rain 53 11.7 51 10.6 93 93 VRB 5 7 29.79 1009 5 8 0.04 1.02
10:53 am 10:53 Cloudy 56 13.3 52 11.1 87 87 SSW 10 17 29.79 1009 10 16 0.00 0.00
11:41 am 11:41 Mostly Cloudy 59 15 53 11.7 81 81 SSW 15 24 29.77 1008 10 16 0.00 0.00
11:53 am 11:53 Cloudy 58 14.4 52 11.1 81 81 SSW 9 15 29.76 1008 10 16 0.00 0.00
12:53 pm 12:53 Mostly Cloudy 60 15.6 51 10.6 72 72 SW 12 19 29.74 1007 10 16 0.00 0.00
1:53 pm 13:53 Partly Cloudy 64 17.8 50 10 60 60 SW 13 20 29.73 1007 10 16 0.00 0.00
2:53 pm 14:53 Partly Cloudy 64 17.8 47 8.3 54 54 WSW 10 17 29.72 1007 10 16 0.00 0.00
3:53 pm 15:53 Mostly Cloudy 61 16.1 46 7.8 58 58 VRB 7 11 29.75 1008 10 16 0.00 0.00
4:53 pm 16:53 Sunny 54 12.2 43 6.1 67 67 W 13 20 29.80 1009 10 16 0.00 0.00
5:53 pm 17:53 Clear 50 10 39 3.9 66 66 W 10 17 29.85 1011 10 16 0.00 0.00
6:53 pm 18:53 Clear 48 8.9 38 3.3 68 68 W 8 13 29.88 1012 10 16 0.00 0.00
7:53 pm 19:53 Clear 45 7.2 37 2.8 74 74 W 7 11 29.92 1013 10 16 0.00 0.00
8:20 pm 20:20 Mostly Cloudy 46 7.8 37 2.8 71 71 W 14 22 29.94 1014 10 16 0.00 0.00
8:53 pm 20:53 Mostly Cloudy 45 7.2 35 1.7 68 68 W 12 19 29.95 1014 10 16 0.00 0.00
9:02 pm 21:02 Cloudy 45 7.2 35 1.7 68 68 W 7 11 29.97 1015 10 16 0.00 0.00
9:38 pm 21:38 Cloudy 45 7.2 35 1.7 68 68 W 7 11 29.97 1015 10 16 0.00 0.00
9:53 pm 21:53 Cloudy 45 7.2 35 1.7 68 68 W 7 11 29.97 1015 10 16 0.00 0.00
10:53 pm 22:53 Cloudy 44 6.7 36 2.2 73 73 W 8 13 29.98 1015 10 16 0.00 0.00
11:48 pm 23:48 Cloudy 45 7 36 2 71 71 WSW 8 13 30.01 1016 10 16 0.00 0.00
11:53 pm 23:53 Cloudy 44 6.7 36 2.2 73 73 WSW 5 7 29.99 1016 10 16 0.00 0.00

Powered by AerisWeather